PRIVATE WETTERSTATION BILLIGHEIM-ALLFELD                       ZURCK
Wetterdaten: Donnerstag, 24.07.2014
Datum Zeit Temp. A. Temp. A. min Temp. A. max Feuchte A. Luftdruck Regen Wind Richtung Richtung Sonnenschein ET Solar Taupunkt Windchill Windben Empfang
24.07.2014 00:00 19,4 C 19,4 C 19,6 C 68 % 1012,5 hPa 0,0 l/m 0,0 km/h (0 Bft) N 0 0 min 0,025 mm 0 W/m 13,3 C 19,4 C 0,0 km/h (0 Bft) 100 %
24.07.2014 00:10 19,3 C 19,3 C 19,4 C 69 % 1012,6 hPa 0,0 l/m 0,0 km/h (0 Bft) N 0 0 min 0,000 mm 0 W/m 13,5 C 19,3 C 0,0 km/h (0 Bft) 100 %
24.07.2014 00:20 19,1 C 19,1 C 19,3 C 69 % 1012,5 hPa 0,0 l/m 0,0 km/h (0 Bft) N 0 0 min 0,000 mm 0 W/m 13,3 C 19,1 C 0,0 km/h (0 Bft) 100 %
24.07.2014 00:30 18,9 C 18,9 C 19,1 C 70 % 1012,4 hPa 0,0 l/m 0,0 km/h (0 Bft) SW 225 0 min 0,000 mm 0 W/m 13,3 C 18,9 C 1,6 km/h (1 Bft) 99 %
24.07.2014 00:40 18,9 C 18,8 C 18,9 C 70 % 1012,3 hPa 0,0 l/m 0,0 km/h (0 Bft) SW 225 0 min 0,000 mm 0 W/m 13,3 C 18,9 C 3,2 km/h (1 Bft) 100 %
24.07.2014 00:50 18,7 C 18,7 C 18,9 C 70 % 1012,3 hPa 0,0 l/m 0,0 km/h (0 Bft) SW 225 0 min 0,000 mm 0 W/m 13,1 C 18,7 C 1,6 km/h (1 Bft) 100 %
24.07.2014 01:00 18,6 C 18,6 C 18,7 C 72 % 1012,3 hPa 0,0 l/m 0,0 km/h (0 Bft) N 0 0 min 0,025 mm 0 W/m 13,4 C 18,6 C 0,0 km/h (0 Bft) 100 %
24.07.2014 01:10 18,3 C 18,3 C 18,6 C 72 % 1012,2 hPa 0,0 l/m 0,0 km/h (0 Bft) N 0 0 min 0,000 mm 0 W/m 13,2 C 18,3 C 0,0 km/h (0 Bft) 100 %
24.07.2014 01:20 18,0 C 18,0 C 18,3 C 74 % 1012,4 hPa 0,0 l/m 0,0 km/h (0 Bft) N 0 0 min 0,000 mm 0 W/m 13,3 C 18,0 C 0,0 km/h (0 Bft) 100 %
24.07.2014 01:30 17,8 C 17,8 C 18,0 C 74 % 1012,3 hPa 0,0 l/m 0,0 km/h (0 Bft) N 0 0 min 0,000 mm 0 W/m 13,1 C 17,8 C 0,0 km/h (0 Bft) 100 %
24.07.2014 01:40 17,5 C 17,5 C 17,8 C 74 % 1012,2 hPa 0,0 l/m 0,0 km/h (0 Bft) N 0 0 min 0,000 mm 0 W/m 12,8 C 17,5 C 0,0 km/h (0 Bft) 100 %
24.07.2014 01:50 17,3 C 17,3 C 17,5 C 74 % 1012,2 hPa 0,0 l/m 0,0 km/h (0 Bft) N 0 0 min 0,000 mm 0 W/m 12,6 C 17,3 C 0,0 km/h (0 Bft) 100 %
24.07.2014 02:00 17,1 C 17,1 C 17,3 C 75 % 1012,1 hPa 0,0 l/m 0,0 km/h (0 Bft) N 0 0 min 0,025 mm 0 W/m 12,6 C 17,1 C 0,0 km/h (0 Bft) 99 %
24.07.2014 02:10 16,9 C 16,9 C 17,1 C 77 % 1012,0 hPa 0,0 l/m 0,0 km/h (0 Bft) N 0 0 min 0,000 mm 0 W/m 12,8 C 16,9 C 0,0 km/h (0 Bft) 100 %
24.07.2014 02:20 16,8 C 16,8 C 16,9 C 76 % 1011,8 hPa 0,0 l/m 0,0 km/h (0 Bft) N 0 0 min 0,000 mm 0 W/m 12,5 C 16,8 C 0,0 km/h (0 Bft) 100 %
24.07.2014 02:30 16,6 C 16,6 C 16,8 C 77 % 1011,8 hPa 0,0 l/m 0,0 km/h (0 Bft) N 0 0 min 0,000 mm 0 W/m 12,5 C 16,6 C 0,0 km/h (0 Bft) 100 %
24.07.2014 02:40 16,5 C 16,5 C 16,6 C 78 % 1011,7 hPa 0,0 l/m 0,0 km/h (0 Bft) N 0 0 min 0,000 mm 0 W/m 12,6 C 16,5 C 0,0 km/h (0 Bft) 100 %
24.07.2014 02:50 16,3 C 16,3 C 16,5 C 77 % 1011,6 hPa 0,0 l/m 0,0 km/h (0 Bft) N 0 0 min 0,000 mm 0 W/m 12,3 C 16,3 C 0,0 km/h (0 Bft) 99 %
24.07.2014 03:00 16,3 C 16,3 C 16,3 C 78 % 1011,6 hPa 0,0 l/m 0,0 km/h (0 Bft) N 0 0 min 0,025 mm 0 W/m 12,5 C 16,3 C 0,0 km/h (0 Bft) 100 %
24.07.2014 03:10 16,2 C 16,2 C 16,3 C 77 % 1011,5 hPa 0,0 l/m 0,0 km/h (0 Bft) N 0 0 min 0,000 mm 0 W/m 12,2 C 16,2 C 0,0 km/h (0 Bft) 100 %
24.07.2014 03:20 16,1 C 16,1 C 16,2 C 77 % 1011,5 hPa 0,0 l/m 0,0 km/h (0 Bft) N 0 0 min 0,000 mm 0 W/m 12,1 C 16,1 C 0,0 km/h (0 Bft) 100 %
24.07.2014 03:30 16,0 C 16,0 C 16,1 C 77 % 1011,5 hPa 0,0 l/m 0,0 km/h (0 Bft) N 0 0 min 0,000 mm 0 W/m 12,0 C 16,0 C 0,0 km/h (0 Bft) 100 %
24.07.2014 03:40 15,8 C 15,8 C 16,0 C 79 % 1011,3 hPa 0,0 l/m 0,0 km/h (0 Bft) N 0 0 min 0,000 mm 0 W/m 12,2 C 15,8 C 0,0 km/h (0 Bft) 99 %
24.07.2014 03:50 15,7 C 15,7 C 15,8 C 79 % 1011,3 hPa 0,0 l/m 0,0 km/h (0 Bft) N 0 0 min 0,000 mm 0 W/m 12,1 C 15,7 C 0,0 km/h (0 Bft) 100 %
24.07.2014 04:00 15,6 C 15,6 C 15,7 C 80 % 1011,2 hPa 0,0 l/m 0,0 km/h (0 Bft) N 0 0 min 0,025 mm 0 W/m 12,2 C 15,6 C 0,0 km/h (0 Bft) 99 %
24.07.2014 04:10 15,4 C 15,4 C 15,6 C 80 % 1011,1 hPa 0,0 l/m 0,0 km/h (0 Bft) N 0 0 min 0,000 mm 0 W/m 12,0 C 15,4 C 0,0 km/h (0 Bft) 100 %
24.07.2014 04:20 15,2 C 15,2 C 15,4 C 81 % 1011,1 hPa 0,0 l/m 0,0 km/h (0 Bft) N 0 0 min 0,000 mm 0 W/m 12,0 C 15,2 C 0,0 km/h (0 Bft) 100 %
24.07.2014 04:30 15,1 C 15,1 C 15,2 C 81 % 1011,1 hPa 0,0 l/m 0,0 km/h (0 Bft) N 0 0 min 0,000 mm 0 W/m 11,9 C 15,1 C 0,0 km/h (0 Bft) 100 %
24.07.2014 04:40 14,9 C 14,9 C 15,1 C 82 % 1011,0 hPa 0,0 l/m 0,0 km/h (0 Bft) N 0 0 min 0,000 mm 0 W/m 11,9 C 14,9 C 0,0 km/h (0 Bft) 100 %
24.07.2014 04:50 14,7 C 14,7 C 14,9 C 82 % 1010,9 hPa 0,0 l/m 0,0 km/h (0 Bft) N 0 0 min 0,000 mm 0 W/m 11,7 C 14,7 C 0,0 km/h (0 Bft) 100 %
24.07.2014 05:00 14,4 C 14,4 C 14,7 C 83 % 1011,0 hPa 0,0 l/m 0,0 km/h (0 Bft) N 0 0 min 0,025 mm 0 W/m 11,5 C 14,4 C 0,0 km/h (0 Bft) 100 %
24.07.2014 05:10 14,3 C 14,3 C 14,4 C 83 % 1010,9 hPa 0,0 l/m 0,0 km/h (0 Bft) N 0 0 min 0,000 mm 0 W/m 11,5 C 14,3 C 0,0 km/h (0 Bft) 99 %
24.07.2014 05:20 14,3 C 14,3 C 14,3 C 83 % 1010,8 hPa 0,0 l/m 0,0 km/h (0 Bft) N 0 0 min 0,000 mm 0 W/m 11,5 C 14,3 C 0,0 km/h (0 Bft) 100 %
24.07.2014 05:30 14,3 C 14,3 C 14,3 C 83 % 1010,8 hPa 0,0 l/m 0,0 km/h (0 Bft) SW 225 0 min 0,000 mm 0 W/m 11,5 C 14,3 C 1,6 km/h (1 Bft) 100 %
24.07.2014 05:40 14,2 C 14,2 C 14,3 C 83 % 1010,8 hPa 0,0 l/m 0,0 km/h (0 Bft) N 0 0 min 0,000 mm 0 W/m 11,4 C 14,2 C 0,0 km/h (0 Bft) 100 %
24.07.2014 05:50 14,1 C 14,1 C 14,2 C 83 % 1010,9 hPa 0,0 l/m 0,0 km/h (0 Bft) N 0 0 min 0,000 mm 0 W/m 11,3 C 14,1 C 0,0 km/h (0 Bft) 100 %
24.07.2014 06:00 14,1 C 14,1 C 14,1 C 83 % 1011,0 hPa 0,0 l/m 0,0 km/h (0 Bft) SW 225 0 min 0,000 mm 7 W/m 11,3 C 14,1 C 1,6 km/h (1 Bft) 100 %
24.07.2014 06:10 14,0 C 14,0 C 14,1 C 83 % 1010,9 hPa 0,0 l/m 0,0 km/h (0 Bft) SW 225 0 min 0,000 mm 12 W/m 11,2 C 14,0 C 1,6 km/h (1 Bft) 100 %
24.07.2014 06:20 14,0 C 13,9 C 14,0 C 84 % 1011,1 hPa 0,0 l/m 0,0 km/h (0 Bft) SW 225 0 min 0,000 mm 19 W/m 11,3 C 14,0 C 1,6 km/h (1 Bft) 100 %
24.07.2014 06:30 14,0 C 14,0 C 14,1 C 84 % 1011,1 hPa 0,0 l/m 0,0 km/h (0 Bft) SW 225 0 min 0,000 mm 30 W/m 11,3 C 14,0 C 1,6 km/h (1 Bft) 100 %
24.07.2014 06:40 14,3 C 14,0 C 14,3 C 83 % 1011,1 hPa 0,0 l/m 0,0 km/h (0 Bft) SW 225 0 min 0,000 mm 28 W/m 11,5 C 14,3 C 3,2 km/h (1 Bft) 100 %
24.07.2014 06:50 14,9 C 14,3 C 14,9 C 81 % 1011,1 hPa 0,0 l/m 0,0 km/h (0 Bft) SW 225 0 min 0,000 mm 25 W/m 11,7 C 14,9 C 4,8 km/h (1 Bft) 100 %
24.07.2014 07:00 15,2 C 14,9 C 15,2 C 80 % 1011,3 hPa 0,0 l/m 0,0 km/h (0 Bft) O-SO 112 0 min 0,025 mm 32 W/m 11,8 C 15,2 C 6,4 km/h (2 Bft) 100 %
24.07.2014 07:10 15,4 C 15,2 C 15,4 C 79 % 1011,3 hPa 0,0 l/m 0,0 km/h (0 Bft) O 90 0 min 0,000 mm 39 W/m 11,8 C 15,4 C 1,6 km/h (1 Bft) 100 %
24.07.2014 07:20 15,6 C 15,4 C 15,6 C 79 % 1011,3 hPa 0,0 l/m 0,0 km/h (0 Bft) S-SO 157 0 min 0,000 mm 56 W/m 12,0 C 15,6 C 1,6 km/h (1 Bft) 100 %
24.07.2014 07:30 15,8 C 15,6 C 15,8 C 80 % 1011,4 hPa 0,0 l/m 0,0 km/h (0 Bft) S-SW 202 0 min 0,000 mm 62 W/m 12,4 C 15,8 C 4,8 km/h (1 Bft) 100 %
24.07.2014 07:40 16,1 C 15,8 C 16,1 C 79 % 1011,4 hPa 0,0 l/m 0,0 km/h (0 Bft) W-NW 292 0 min 0,000 mm 56 W/m 12,5 C 16,1 C 6,4 km/h (2 Bft) 100 %
24.07.2014 07:50 16,3 C 16,1 C 16,3 C 77 % 1011,4 hPa 0,0 l/m 0,0 km/h (0 Bft) NW 315 0 min 0,000 mm 53 W/m 12,3 C 16,3 C 3,2 km/h (1 Bft) 99 %
24.07.2014 08:00 16,6 C 16,3 C 16,6 C 77 % 1011,4 hPa 0,0 l/m 0,0 km/h (0 Bft) W 270 0 min 0,025 mm 47 W/m 12,5 C 16,6 C 8,0 km/h (2 Bft) 100 %
24.07.2014 08:10 16,8 C 16,6 C 16,8 C 77 % 1011,5 hPa 0,0 l/m 0,0 km/h (0 Bft) N 360 0 min 0,000 mm 51 W/m 12,7 C 16,8 C 1,6 km/h (1 Bft) 100 %
24.07.2014 08:20 17,0 C 16,8 C 17,0 C 75 % 1011,5 hPa 0,0 l/m 0,0 km/h (0 Bft) W 270 0 min 0,000 mm 109 W/m 12,5 C 17,0 C 4,8 km/h (1 Bft) 100 %
24.07.2014 08:30 17,5 C 17,1 C 17,5 C 74 % 1011,4 hPa 0,0 l/m 0,0 km/h (0 Bft) NO 45 10 min 0,000 mm 348 W/m 12,8 C 17,5 C 4,8 km/h (1 Bft) 99 %
24.07.2014 08:40 18,2 C 17,5 C 18,2 C 73 % 1011,4 hPa 0,0 l/m 0,0 km/h (0 Bft) W 270 10 min 0,000 mm 380 W/m 13,3 C 18,2 C 6,4 km/h (2 Bft) 100 %
24.07.2014 08:50 19,0 C 18,2 C 19,0 C 71 % 1011,4 hPa 0,0 l/m 0,0 km/h (0 Bft) W 270 10 min 0,000 mm 408 W/m 13,6 C 19,0 C 8,0 km/h (2 Bft) 100 %
24.07.2014 09:00 19,8 C 19,0 C 19,8 C 69 % 1011,4 hPa 0,0 l/m 0,0 km/h (0 Bft) NO 45 10 min 0,152 mm 432 W/m 13,9 C 19,8 C 4,8 km/h (1 Bft) 100 %
24.07.2014 09:10 20,4 C 19,8 C 20,4 C 67 % 1011,4 hPa 0,0 l/m 0,0 km/h (0 Bft) NO 45 10 min 0,000 mm 457 W/m 14,1 C 20,4 C 6,4 km/h (2 Bft) 100 %
24.07.2014 09:20 21,0 C 19,8 C 21,0 C 65 % 1011,5 hPa 0,0 l/m 0,3 km/h (0 Bft) W 273 10 min 0,000 mm 483 W/m 14,2 C 21,0 C 3,2 km/h (1 Bft) 100 %
24.07.2014 09:30 21,4 C 21,0 C 21,4 C 66 % 1011,5 hPa 0,0 l/m 0,4 km/h (0 Bft) N 349 10 min 0,000 mm 512 W/m 14,8 C 21,4 C 6,4 km/h (2 Bft) 100 %
24.07.2014 09:40 21,7 C 21,4 C 21,7 C 64 % 1011,5 hPa 0,0 l/m 1,2 km/h (1 Bft) O-SO 106 10 min 0,000 mm 534 W/m 14,6 C 21,7 C 11,3 km/h (2 Bft) 100 %
24.07.2014 09:50 21,9 C 21,7 C 21,9 C 62 % 1011,4 hPa 0,0 l/m 0,8 km/h (0 Bft) S-SW 200 10 min 0,000 mm 563 W/m 14,3 C 21,9 C 9,7 km/h (2 Bft) 100 %
24.07.2014 10:00 22,3 C 21,9 C 22,3 C 63 % 1011,5 hPa 0,0 l/m 0,4 km/h (0 Bft) NO 50 10 min 0,283 mm 580 W/m 14,9 C 22,3 C 4,8 km/h (1 Bft) 100 %
24.07.2014 10:10 22,5 C 22,3 C 22,5 C 62 % 1011,5 hPa 0,0 l/m 0,2 km/h (0 Bft) W 275 10 min 0,000 mm 599 W/m 14,8 C 22,5 C 3,2 km/h (1 Bft) 100 %
24.07.2014 10:20 22,8 C 22,5 C 22,8 C 62 % 1011,5 hPa 0,0 l/m 0,2 km/h (0 Bft) N-NW 336 10 min 0,000 mm 624 W/m 15,1 C 22,8 C 6,4 km/h (2 Bft) 100 %
24.07.2014 10:30 22,9 C 22,8 C 22,9 C 59 % 1011,5 hPa 0,0 l/m 0,4 km/h (0 Bft) SW 225 10 min 0,000 mm 647 W/m 14,5 C 22,9 C 4,8 km/h (1 Bft) 100 %
24.07.2014 10:40 22,9 C 22,9 C 22,9 C 59 % 1011,4 hPa 0,0 l/m 0,1 km/h (0 Bft) W-SW 253 10 min 0,000 mm 668 W/m 14,5 C 22,9 C 1,6 km/h (1 Bft) 100 %
24.07.2014 10:50 23,2 C 22,9 C 23,2 C 58 % 1011,4 hPa 0,0 l/m 0,9 km/h (0 Bft) NO 47 10 min 0,000 mm 691 W/m 14,5 C 23,2 C 8,0 km/h (2 Bft) 100 %
24.07.2014 11:00 23,5 C 23,2 C 23,5 C 57 % 1011,5 hPa 0,0 l/m 1,1 km/h (1 Bft) NW 322 10 min 0,000 mm 708 W/m 14,5 C 23,5 C 9,7 km/h (2 Bft) 100 %
24.07.2014 11:10 23,9 C 23,5 C 23,9 C 56 % 1011,5 hPa 0,0 l/m 1,1 km/h (1 Bft) O 98 10 min 0,406 mm 728 W/m 14,6 C 23,9 C 11,3 km/h (2 Bft) 100 %
24.07.2014 11:20 24,1 C 23,9 C 24,1 C 56 % 1011,5 hPa 0,0 l/m 0,2 km/h (0 Bft) S-SO 157 10 min 0,000 mm 742 W/m 14,8 C 24,1 C 4,8 km/h (1 Bft) 100 %
24.07.2014 11:30 24,4 C 24,1 C 24,4 C 57 % 1011,5 hPa 0,0 l/m 0,6 km/h (0 Bft) O-NO 59 10 min 0,000 mm 761 W/m 15,3 C 24,4 C 8,0 km/h (2 Bft) 100 %
24.07.2014 11:40 24,6 C 24,4 C 24,6 C 54 % 1011,4 hPa 0,0 l/m 0,8 km/h (0 Bft) N-NO 30 10 min 0,000 mm 770 W/m 14,7 C 24,6 C 11,3 km/h (2 Bft) 100 %
24.07.2014 11:50 24,7 C 24,6 C 24,7 C 56 % 1011,4 hPa 0,0 l/m 0,9 km/h (0 Bft) N-NW 334 10 min 0,000 mm 788 W/m 15,3 C 24,7 C 9,7 km/h (2 Bft) 100 %
24.07.2014 12:00 25,0 C 24,7 C 25,0 C 56 % 1011,4 hPa 0,0 l/m 0,5 km/h (0 Bft) S-SO 147 10 min 0,483 mm 796 W/m 15,6 C 25,0 C 4,8 km/h (1 Bft) 100 %
24.07.2014 12:10 25,2 C 25,0 C 25,2 C 56 % 1011,4 hPa 0,0 l/m 1,0 km/h (0 Bft) W-NW 302 10 min 0,000 mm 809 W/m 15,8 C 25,2 C 11,3 km/h (2 Bft) 100 %
24.07.2014 12:20 25,4 C 25,2 C 25,4 C 54 % 1011,3 hPa 0,0 l/m 0,8 km/h (0 Bft) N-NO 20 10 min 0,000 mm 817 W/m 15,4 C 25,4 C 11,3 km/h (2 Bft) 100 %
24.07.2014 12:30 25,6 C 25,4 C 25,6 C 54 % 1011,3 hPa 0,0 l/m 0,9 km/h (0 Bft) SW 217 10 min 0,000 mm 828 W/m 15,6 C 25,6 C 9,7 km/h (2 Bft) 100 %
24.07.2014 12:40 25,8 C 25,6 C 25,8 C 54 % 1011,3 hPa 0,0 l/m 1,4 km/h (1 Bft) N-NW 342 10 min 0,000 mm 837 W/m 15,8 C 25,8 C 9,7 km/h (2 Bft) 100 %
24.07.2014 12:50 25,9 C 25,8 C 25,9 C 52 % 1011,4 hPa 0,0 l/m 1,7 km/h (1 Bft) O 86 10 min 0,000 mm 828 W/m 15,3 C 25,9 C 9,7 km/h (2 Bft) 100 %
24.07.2014 13:00 25,8 C 25,8 C 25,9 C 55 % 1011,4 hPa 0,0 l/m 1,1 km/h (1 Bft) O-SO 123 10 min 0,000 mm 856 W/m 16,1 C 25,8 C 6,4 km/h (2 Bft) 100 %
24.07.2014 13:10 25,8 C 25,7 C 25,8 C 50 % 1011,5 hPa 0,0 l/m 1,0 km/h (0 Bft) W-NW 283 10 min 0,533 mm 849 W/m 14,6 C 25,8 C 11,3 km/h (2 Bft) 100 %
24.07.2014 13:20 26,0 C 25,8 C 26,0 C 52 % 1011,4 hPa 0,0 l/m 1,1 km/h (1 Bft) O-NO 67 10 min 0,000 mm 847 W/m 15,4 C 26,0 C 9,7 km/h (2 Bft) 100 %
24.07.2014 13:30 26,0 C 26,0 C 26,0 C 56 % 1011,5 hPa 0,0 l/m 1,2 km/h (1 Bft) SW 223 10 min 0,000 mm 877 W/m 16,5 C 26,0 C 8,0 km/h (2 Bft) 100 %
24.07.2014 13:40 25,9 C 25,9 C 26,0 C 51 % 1011,4 hPa 0,0 l/m 1,0 km/h (0 Bft) N-NO 22 0 min 0,000 mm 137 W/m 15,0 C 25,9 C 19,3 km/h (3 Bft) 100 %
24.07.2014 13:50 25,5 C 25,5 C 25,9 C 53 % 1011,3 hPa 0,0 l/m 0,1 km/h (0 Bft) W-SW 250 10 min 0,000 mm 889 W/m 15,2 C 25,5 C 4,8 km/h (1 Bft) 100 %
24.07.2014 14:00 26,0 C 25,5 C 26,0 C 50 % 1011,1 hPa 0,0 l/m 1,4 km/h (1 Bft) N-NW 335 10 min 0,000 mm 881 W/m 14,8 C 26,0 C 12,9 km/h (3 Bft) 100 %
24.07.2014 14:10 26,4 C 26,0 C 26,4 C 47 % 1011,2 hPa 0,0 l/m 0,6 km/h (0 Bft) O 82 10 min 0,508 mm 882 W/m 14,2 C 26,4 C 6,4 km/h (2 Bft) 100 %
24.07.2014 14:20 26,7 C 26,4 C 26,7 C 49 % 1011,2 hPa 0,0 l/m 0,7 km/h (0 Bft) O-SO 112 10 min 0,000 mm 909 W/m 15,1 C 26,7 C 6,4 km/h (2 Bft) 91 %
24.07.2014 14:30 26,8 C 26,7 C 26,8 C 44 % 1011,0 hPa 0,0 l/m 2,8 km/h (1 Bft) O-SO 111 10 min 0,000 mm 947 W/m 13,5 C 26,8 C 16,1 km/h (3 Bft) 99 %
24.07.2014 14:40 26,7 C 26,7 C 26,8 C 52 % 1011,0 hPa 0,0 l/m 0,4 km/h (0 Bft) O 101 10 min 0,000 mm 230 W/m 16,0 C 26,7 C 4,8 km/h (1 Bft) 98 %
24.07.2014 14:50 26,8 C 26,7 C 26,8 C 54 % 1010,9 hPa 0,0 l/m 1,0 km/h (0 Bft) N-NW 337 10 min 0,000 mm 879 W/m 16,7 C 26,8 C 8,0 km/h (2 Bft) 98 %
24.07.2014 15:00 26,5 C 26,5 C 26,8 C 53 % 1010,9 hPa 0,0 l/m 0,1 km/h (0 Bft) NW 310 10 min 0,458 mm 169 W/m 16,1 C 26,5 C 3,2 km/h (1 Bft) 97 %
24.07.2014 15:10 26,3 C 26,3 C 26,5 C 51 % 1010,8 hPa 0,0 l/m 0,6 km/h (0 Bft) O 101 10 min 0,000 mm 821 W/m 15,3 C 26,3 C 8,0 km/h (2 Bft) 98 %
24.07.2014 15:20 26,6 C 26,3 C 26,6 C 51 % 1010,7 hPa 0,0 l/m 0,5 km/h (0 Bft) S 182 10 min 0,000 mm 798 W/m 15,6 C 26,6 C 4,8 km/h (1 Bft) 97 %
24.07.2014 15:30 27,1 C 26,6 C 27,1 C 49 % 1010,6 hPa 0,0 l/m 0,3 km/h (0 Bft) N-NW 329 10 min 0,000 mm 775 W/m 15,4 C 27,1 C 6,4 km/h (2 Bft) 98 %
24.07.2014 15:40 27,4 C 27,1 C 27,4 C 48 % 1010,5 hPa 0,0 l/m 0,2 km/h (0 Bft) NW 323 10 min 0,000 mm 786 W/m 15,4 C 27,4 C 4,8 km/h (1 Bft) 98 %
24.07.2014 15:50 27,6 C 27,4 C 27,6 C 45 % 1010,4 hPa 0,0 l/m 1,3 km/h (1 Bft) NW 319 10 min 0,000 mm 795 W/m 14,6 C 27,6 C 9,7 km/h (2 Bft) 97 %
24.07.2014 16:00 27,2 C 27,2 C 27,6 C 46 % 1010,4 hPa 0,0 l/m 0,7 km/h (0 Bft) NW 319 10 min 0,482 mm 788 W/m 14,6 C 27,2 C 6,4 km/h (2 Bft) 97 %
24.07.2014 16:10 26,8 C 26,8 C 27,2 C 46 % 1010,3 hPa 0,0 l/m 0,5 km/h (0 Bft) NO 51 10 min 0,000 mm 719 W/m 14,2 C 26,8 C 6,4 km/h (2 Bft) 98 %
24.07.2014 16:20 27,0 C 26,8 C 27,1 C 46 % 1010,3 hPa 0,0 l/m 0,6 km/h (0 Bft) NO 51 10 min 0,000 mm 768 W/m 14,4 C 27,0 C 4,8 km/h (1 Bft) 97 %
24.07.2014 16:30 27,5 C 27,0 C 27,5 C 46 % 1010,3 hPa 0,0 l/m 6,8 km/h (2 Bft) NW 317 10 min 0,000 mm 798 W/m 14,8 C 27,4 C 16,1 km/h (3 Bft) 97 %
24.07.2014 16:40 27,6 C 27,5 C 27,6 C 48 % 1010,3 hPa 0,0 l/m 1,5 km/h (1 Bft) S-SW 207 10 min 0,000 mm 656 W/m 15,6 C 27,6 C 11,3 km/h (2 Bft) 98 %
24.07.2014 16:50 27,4 C 27,4 C 27,6 C 48 % 1010,2 hPa 0,0 l/m 0,2 km/h (0 Bft) O-NO 73 10 min 0,000 mm 605 W/m 15,4 C 27,4 C 4,8 km/h (1 Bft) 97 %
24.07.2014 17:00 27,3 C 27,3 C 27,4 C 50 % 1010,2 hPa 0,0 l/m 0,4 km/h (0 Bft) S-SW 208 10 min 0,432 mm 534 W/m 15,9 C 27,3 C 6,4 km/h (2 Bft) 97 %
24.07.2014 17:10 27,1 C 27,1 C 27,3 C 48 % 1010,2 hPa 0,0 l/m 0,3 km/h (0 Bft) O 94 0 min 0,000 mm 120 W/m 15,1 C 27,1 C 6,4 km/h (2 Bft) 98 %
24.07.2014 17:20 27,0 C 27,0 C 27,1 C 47 % 1010,1 hPa 0,0 l/m 0,4 km/h (0 Bft) N 5 0 min 0,000 mm 98 W/m 14,7 C 27,0 C 4,8 km/h (1 Bft) 97 %
24.07.2014 17:30 26,8 C 26,8 C 27,0 C 51 % 1010,1 hPa 0,0 l/m 0,2 km/h (0 Bft) O 96 10 min 0,000 mm 199 W/m 15,8 C 26,8 C 4,8 km/h (1 Bft) 98 %
24.07.2014 17:40 26,7 C 26,7 C 26,8 C 46 % 1009,9 hPa 0,0 l/m 0,0 km/h (0 Bft) O-NO 62 0 min 0,000 mm 100 W/m 14,1 C 26,7 C 1,6 km/h (1 Bft) 97 %
24.07.2014 17:50 26,6 C 26,6 C 26,7 C 48 % 1009,9 hPa 0,0 l/m 0,6 km/h (0 Bft) SO 131 0 min 0,000 mm 128 W/m 14,7 C 26,6 C 6,4 km/h (2 Bft) 97 %
24.07.2014 18:00 26,6 C 26,6 C 26,6 C 49 % 1009,9 hPa 0,0 l/m 0,6 km/h (0 Bft) N-NW 337 0 min 0,102 mm 118 W/m 15,0 C 26,6 C 4,8 km/h (1 Bft) 97 %
24.07.2014 18:10 26,5 C 26,4 C 26,6 C 50 % 1009,8 hPa 0,0 l/m 0,2 km/h (0 Bft) N 355 0 min 0,000 mm 91 W/m 15,2 C 26,5 C 3,2 km/h (1 Bft) 97 %
24.07.2014 18:20 26,4 C 26,4 C 26,5 C 46 % 1009,7 hPa 0,0 l/m 0,4 km/h (0 Bft) NW 325 0 min 0,000 mm 125 W/m 13,8 C 26,4 C 6,4 km/h (2 Bft) 98 %
24.07.2014 18:30 26,2 C 26,2 C 26,4 C 51 % 1009,8 hPa 0,0 l/m 2,1 km/h (1 Bft) NW 321 0 min 0,000 mm 100 W/m 15,2 C 26,2 C 11,3 km/h (2 Bft) 97 %
24.07.2014 18:40 26,0 C 26,0 C 26,2 C 46 % 1009,7 hPa 0,0 l/m 0,0 km/h (0 Bft) NW 323 0 min 0,000 mm 79 W/m 13,5 C 26,0 C 1,6 km/h (1 Bft) 98 %
24.07.2014 18:50 25,3 C 25,3 C 26,0 C 53 % 1009,7 hPa 0,0 l/m 0,0 km/h (0 Bft) N-NW 348 0 min 0,000 mm 79 W/m 15,0 C 25,3 C 1,6 km/h (1 Bft) 97 %
24.07.2014 19:00 24,8 C 24,8 C 25,3 C 51 % 1009,7 hPa 0,0 l/m 0,0 km/h (0 Bft) N-NW 348 0 min 0,076 mm 81 W/m 14,0 C 24,8 C 0,0 km/h (0 Bft) 97 %
24.07.2014 19:10 24,3 C 24,3 C 24,8 C 54 % 1009,7 hPa 0,0 l/m 0,0 km/h (0 Bft) N-NW 348 0 min 0,000 mm 88 W/m 14,4 C 24,3 C 1,6 km/h (1 Bft) 98 %
24.07.2014 19:20 23,8 C 23,8 C 24,3 C 59 % 1009,6 hPa 0,0 l/m 0,0 km/h (0 Bft) N-NW 341 0 min 0,000 mm 79 W/m 15,3 C 23,8 C 1,6 km/h (1 Bft) 97 %
24.07.2014 19:30 23,6 C 23,6 C 23,8 C 60 % 1009,8 hPa 0,0 l/m 0,1 km/h (0 Bft) NW 326 0 min 0,000 mm 67 W/m 15,4 C 23,6 C 6,4 km/h (2 Bft) 98 %
24.07.2014 19:40 23,3 C 23,3 C 23,6 C 64 % 1010,0 hPa 0,0 l/m 0,0 km/h (0 Bft) N-NW 327 0 min 0,000 mm 69 W/m 16,1 C 23,3 C 1,6 km/h (1 Bft) 97 %
24.07.2014 19:50 22,9 C 22,9 C 23,3 C 65 % 1010,1 hPa 0,0 l/m 0,0 km/h (0 Bft) N-NW 327 0 min 0,000 mm 49 W/m 16,0 C 22,9 C 0,0 km/h (0 Bft) 98 %
24.07.2014 20:00 22,6 C 22,6 C 22,9 C 64 % 1010,1 hPa 0,0 l/m 0,0 km/h (0 Bft) N-NW 327 0 min 0,051 mm 39 W/m 15,4 C 22,6 C 0,0 km/h (0 Bft) 97 %
24.07.2014 20:10 22,2 C 22,2 C 22,6 C 67 % 1010,3 hPa 0,0 l/m 0,0 km/h (0 Bft) N-NW 327 0 min 0,000 mm 25 W/m 15,8 C 22,2 C 0,0 km/h (0 Bft) 97 %
24.07.2014 20:20 21,6 C 21,6 C 22,2 C 68 % 1010,3 hPa 0,0 l/m 0,0 km/h (0 Bft) N-NW 327 0 min 0,000 mm 18 W/m 15,4 C 21,6 C 1,6 km/h (1 Bft) 97 %
24.07.2014 20:30 21,2 C 21,2 C 21,6 C 69 % 1010,3 hPa 0,0 l/m 0,0 km/h (0 Bft) N-NW 327 0 min 0,000 mm 14 W/m 15,3 C 21,2 C 0,0 km/h (0 Bft) 97 %
24.07.2014 20:40 20,7 C 20,7 C 21,2 C 70 % 1010,3 hPa 0,0 l/m 0,0 km/h (0 Bft) N-NW 327 0 min 0,000 mm 12 W/m 15,0 C 20,7 C 0,0 km/h (0 Bft) 97 %
24.07.2014 20:50 20,4 C 20,4 C 20,7 C 71 % 1010,4 hPa 0,0 l/m 0,0 km/h (0 Bft) N-NW 327 0 min 0,000 mm 9 W/m 15,0 C 20,4 C 0,0 km/h (0 Bft) 97 %
24.07.2014 21:00 20,1 C 20,1 C 20,4 C 71 % 1010,4 hPa 0,0 l/m 0,0 km/h (0 Bft) N-NW 327 0 min 0,025 mm 7 W/m 14,7 C 20,1 C 0,0 km/h (0 Bft) 97 %
24.07.2014 21:10 19,7 C 19,7 C 20,1 C 73 % 1010,5 hPa 0,0 l/m 0,0 km/h (0 Bft) N 0 0 min 0,000 mm 7 W/m 14,7 C 19,7 C 0,0 km/h (0 Bft) 100 %
24.07.2014 21:20 19,3 C 19,3 C 19,7 C 74 % 1010,6 hPa 0,0 l/m 0,0 km/h (0 Bft) N 0 0 min 0,000 mm 0 W/m 14,5 C 19,3 C 0,0 km/h (0 Bft) 100 %
24.07.2014 21:30 19,1 C 19,1 C 19,3 C 75 % 1010,7 hPa 0,0 l/m 0,0 km/h (0 Bft) NW 315 0 min 0,000 mm 0 W/m 14,6 C 19,1 C 3,2 km/h (1 Bft) 100 %
24.07.2014 21:40 18,8 C 18,8 C 19,1 C 75 % 1010,7 hPa 0,0 l/m 0,0 km/h (0 Bft) NW 315 0 min 0,000 mm 0 W/m 14,3 C 18,8 C 1,6 km/h (1 Bft) 100 %
24.07.2014 21:50 18,7 C 18,7 C 18,8 C 72 % 1010,8 hPa 0,0 l/m 0,0 km/h (0 Bft) NW 315 0 min 0,000 mm 0 W/m 13,5 C 18,7 C 1,6 km/h (1 Bft) 100 %
24.07.2014 22:00 18,8 C 18,7 C 18,8 C 71 % 1011,1 hPa 0,0 l/m 0,0 km/h (0 Bft) NW 315 0 min 0,000 mm 0 W/m 13,4 C 18,8 C 1,6 km/h (1 Bft) 100 %
24.07.2014 22:10 18,9 C 18,8 C 18,9 C 70 % 1011,1 hPa 0,0 l/m 0,0 km/h (0 Bft) W 270 0 min 0,000 mm 0 W/m 13,3 C 18,9 C 8,0 km/h (2 Bft) 100 %
24.07.2014 22:20 19,2 C 19,0 C 19,2 C 69 % 1011,2 hPa 0,0 l/m 0,0 km/h (0 Bft) SW 225 0 min 0,000 mm 0 W/m 13,4 C 19,2 C 4,8 km/h (1 Bft) 100 %
24.07.2014 22:30 19,3 C 19,2 C 19,3 C 68 % 1011,2 hPa 0,0 l/m 0,0 km/h (0 Bft) SW 225 0 min 0,000 mm 0 W/m 13,2 C 19,3 C 1,6 km/h (1 Bft) 100 %
24.07.2014 22:40 19,3 C 19,3 C 19,3 C 70 % 1011,2 hPa 0,0 l/m 0,0 km/h (0 Bft) N 0 0 min 0,000 mm 0 W/m 13,7 C 19,3 C 0,0 km/h (0 Bft) 100 %
24.07.2014 22:50 19,1 C 19,1 C 19,3 C 70 % 1011,2 hPa 0,0 l/m 0,0 km/h (0 Bft) N 0 0 min 0,000 mm 0 W/m 13,5 C 19,1 C 0,0 km/h (0 Bft) 100 %
24.07.2014 23:00 18,8 C 18,8 C 19,1 C 72 % 1011,3 hPa 0,0 l/m 0,0 km/h (0 Bft) N 0 0 min 0,025 mm 0 W/m 13,6 C 18,8 C 0,0 km/h (0 Bft) 100 %
24.07.2014 23:10 18,6 C 18,6 C 18,8 C 73 % 1011,3 hPa 0,0 l/m 0,0 km/h (0 Bft) N 0 0 min 0,000 mm 0 W/m 13,7 C 18,6 C 0,0 km/h (0 Bft) 100 %
24.07.2014 23:20 18,3 C 18,3 C 18,6 C 74 % 1011,5 hPa 0,0 l/m 0,0 km/h (0 Bft) N 0 0 min 0,000 mm 0 W/m 13,6 C 18,3 C 0,0 km/h (0 Bft) 100 %
24.07.2014 23:30 18,0 C 18,0 C 18,3 C 76 % 1011,5 hPa 0,0 l/m 0,0 km/h (0 Bft) N 0 0 min 0,000 mm 0 W/m 13,7 C 18,0 C 0,0 km/h (0 Bft) 100 %
24.07.2014 23:40 17,7 C 17,7 C 18,0 C 78 % 1011,5 hPa 0,0 l/m 0,0 km/h (0 Bft) SW 225 0 min 0,000 mm 0 W/m 13,8 C 17,7 C 1,6 km/h (1 Bft) 100 %
24.07.2014 23:50 17,4 C 17,4 C 17,7 C 78 % 1011,5 hPa 0,0 l/m 0,0 km/h (0 Bft) N 0 0 min 0,000 mm 0 W/m 13,5 C 17,4 C 0,0 km/h (0 Bft) 100 %
_ Min-Zeit 06:20 06:20 06:20 14:30 19:20 - 00:00 - - - - - 06:10 06:10 00:00 14:20
Minimum _ 13,9 C 13,9 C 14,0 C 44 % 1009,6 hPa - 0,0 km/h (0 Bft) - - - - - 11,2 C 14,0 C 0,0 km/h (0 Bft) 91 %
_ Max-Zeit 15:50 16:40 15:50 06:20 00:10 00:00 16:30 - - 08:30 13:10 14:30 14:50 15:50 13:40 00:10
Maximum _ 27,6 C 27,5 C 27,6 C 84 % 1012,6 hPa 0,0 l/m 6,8 km/h
NW (2 Bft)
- - 10 min 0,533 mm 947 W/m 16,7 C 27,6 C 19,3 km/h
N-NO (3 Bft)
100 %
Durchschnitt _ 20,9 C 20,8 C 21,0 C 66 % 1011,1 hPa #0,0 l/m 0,3 km/h (0 Bft) NW - #8:40 h #4,216 mm 413 W/m 13,9 C 20,9 C 3,9 km/h (1 Bft) 99 %
PRIVATE WETTERSTATION BILLIGHEIM-ALLFELD - www.neckar-odenwald-wetter.de - Holger Sonntag